Regional Weather Roundup
Issued by NWS Cleveland, OH

Home | Current Version | Previous Version | Text Only | Print | Product List | Glossary On
Versions: 1 2 3 4 5 6 7 8 9 10 11 12 13 14 15 16 17 18 19 20 21 22 23 24 25 26 27 28 29 30 31 32 33 34 35 36 37 38 39 40 41 42 43 44 45 46 47 48 49 50
819
ASUS41 KCLE 061412
RWRCLE
OHIO REGIONAL WEATHER ROUNDUP
NATIONAL WEATHER SERVICE WILMINGTON, OH
900 AM EST TUE DEC 06 2016

NOTE: "FAIR" INDICATES FEW OR NO CLOUDS BELOW 12,000 FEET WITH NO
SIGNIFICANT WEATHER AND/OR OBSTRUCTIONS TO VISIBILITY.

OHZ001>008-015>018-024>027-034-035-043-044-061500-
   NORTHWEST OHIO

CITY           SKY/WX    TMP DP  RH WIND       PRES   REMARKS
DEFIANCE       CLOUDY    35  29  78 E9        29.77F WCI  28
FINDLAY        CLOUDY    34  28  79 E9        29.74F WCI  27
TOLEDO EXPRESS PTSUNNY   37  33  85 E12       29.79F
TOLEDO EXEC    FAIR      38  32  79 E10       29.80F
LIMA           LGT RAIN  33  31  92 E9        29.72F FOG     WCI  25
$$

OHZ009>014-019>023-028>033-038-089-061500-
   NORTHEAST OHIO

CITY           SKY/WX    TMP DP  RH WIND       PRES   REMARKS
CLE-HOPKINS    CLOUDY    39  27  62 E17       29.83F
CLE-LAKEFRONT  FAIR      40  27  59 SE12      29.82F
CUY CO. ARPT   CLOUDY    39  30  70 SE12G22   29.84F
LORAIN-ELYRIA  FAIR      35  27  72 SE10      29.81F WCI  27
ASHTABULA      FAIR      35  28  75 SE13      29.89F WCI  26
AKRON-CANTON   CLOUDY    37  27  67 E14G21    29.81F
WOOSTER        LGT RAIN  35  28  75 SE16      29.80F WCI  25
MANSFIELD      CLOUDY    34  30  85 E13       29.75F WCI  25
YOUNGSTOWN     CLOUDY    36  27  69 E20G25    29.85F
$$

OHZ042-051>053-060>062-070>072-077>081-061500-
  SOUTHWEST OHIO

CITY           SKY/WX    TMP DP  RH WIND       PRES   REMARKS
CINC-COVINGTON LGT RAIN  40  40 100 E6        29.65F FOG
CINC-LUNKEN    RAIN      41  41 100 N5        29.68S FOG
HAMILTON       RAIN      39  37  92 NE3       29.69S FOG
DAYTON         LGT RAIN  37  35  92 E9        29.69F FOG
WRIGHT-PAT AFB LGT RAIN  37  37  99 E7        29.68F FOG
DAYTON GENERAL HVY RAIN  38  35  89 E10       29.65F FOG
WILMINGTON     RAIN      38  38 100 E9        29.67R FOG
$$

OHZ036-037-039>041-045>050-054>059-063>069-073>076-082>088-061500-
  CENTRAL AND SOUTHEAST OHIO

CITY           SKY/WX    TMP DP  RH WIND       PRES   REMARKS
COLUMBUS       LGT RAIN  39  36  89 E13       29.71F
OSU AIRPORT    LGT RAIN  38  36  92 E9        29.71F
BOLTON FIELD   LGT RAIN  36  34  93 E14G22    29.71F
RICKENBACK AFB LGT RAIN  37  35  94 E9        29.70F
NEWARK         LGT RAIN  37  32  82 NE6       29.74F
MARION         LGT RAIN  36  31  82 SE12      29.75F
LANCASTER      LGT RAIN  38  36  92 E10       29.72F
ZANESVILLE     LGT RAIN  38  34  85 E10       29.77F
NEW PHILLY     CLOUDY    37  32  82 E10       29.82F
$$




USA.gov is the U.S. government's official web portal to all federal, state and local government web resources and services.